Flag for France Weather past 2 weeks in Strasbourg, France

Now
37 °F

Clear.


Feels Like: 35 °F
Forecast: 33 / 50 °F
Wind: 3 mph from North

Location: Strasbourg Airport

Current Time: Feb 28, 2015 at 3:52:09 AM

Latest Report: Feb 28, 2015 at 3:00 AM


Visibility: N/A

Pressure: 30.18 "Hg

Humidity: 87%

Dew point: 34 °F

Location of StrasbourgLocation

Historic Weather in Strasbourg — Graph

°F

Strasbourg temperature yesterday

Maximum temperature yesterday: 45 °F (at 12:00 AM)
Minimum temperature yesterday: 39 °F (at 4:30 AM)
Average temperature yesterday: 41 °F

Past Weeks' High & Low Weather Summary

 TemperatureHumidityPressure
High57 °F (Feb 20, 2:30 PM)100% (Feb 13, 3:00 AM)30.72 "Hg (Feb 13, 3:00 AM)
Low25 °F (Feb 20, 5:00 AM)41% (Feb 20, 4:00 PM)29.50 "Hg (Feb 23, 2:00 PM)
Average38 °F83%30.03 "Hg
* Reported Feb 13 2:00 AM — Feb 28 2:30 AM, Strasbourg, Weather by CustomWeather, © 2015

Note: Actual official high and low records may vary slightly from our data, if they occured in-between our weather recording intervals... More about our weather records

Advertising

Strasbourg weather history for previous 24 hours

 ConditionsComfort  
Time TempWeatherWind HumidityBarometerVisibility
2:30 AM
Sat, Feb 28
37 °FMostly cloudy.1 mph87%30.18 "HgN/A
2:00 AM37 °FOvercast.2 mph87%30.18 "HgN/A
1:30 AM39 °FOvercast.5 mph81%30.18 "HgN/A
1:00 AM39 °FMostly cloudy.5 mph81%30.18 "HgN/A
12:30 AM39 °FOvercast.3 mph81%30.18 "HgN/A
12:00 AM39 °FOvercast.5 mph81%30.18 "HgN/A
11:30 PM
Fri, Feb 27
39 °FOvercast.6 mph81%30.18 "HgN/A
11:00 PM39 °FOvercast.6 mph81%30.18 "HgN/A
10:30 PM39 °FOvercast.6 mph81%30.18 "HgN/A
10:00 PM41 °FOvercast.6 mph76%30.15 "HgN/A
9:30 PM39 °FMostly cloudy.6 mph81%30.15 "HgN/A
9:00 PM41 °FOvercast.6 mph76%30.15 "HgN/A
8:30 PM41 °FMostly cloudy.6 mph76%30.15 "HgN/A
8:00 PM41 °FMostly cloudy.8 mph81%30.12 "HgN/A
7:30 PM41 °FPartly cloudy.9 mph81%30.12 "HgN/A
7:00 PM41 °FLight rain. Overcast.9 mph81%30.09 "HgN/A
6:30 PM41 °FLight rain. Mostly cloudy.10 mph81%30.09 "HgN/A
6:00 PM41 °FLight rain. Mostly cloudy.16 mph81%30.07 "HgN/A
5:30 PM41 °FOvercast.13 mph81%30.07 "HgN/A
5:00 PM41 °FLight rain. More clouds than sun.16 mph87%30.04 "HgN/A
4:30 PM41 °FLight rain. Mostly cloudy.13 mph87%30.04 "HgN/A
4:00 PM43 °FDrizzle. Mostly cloudy.13 mph81%30.01 "HgN/A
3:30 PM43 °FLight rain. Cloudy.14 mph81%30.01 "HgN/A
3:00 PM43 °FLight rain. Mostly cloudy.15 mph81%29.98 "HgN/A
2:30 PM43 °FOvercast.12 mph81%29.95 "HgN/A
2:00 PM43 °FLight rain. Mostly cloudy.14 mph81%29.95 "HgN/A
1:30 PM43 °FLight rain. Overcast.14 mph81%29.95 "HgN/A
1:00 PM43 °FDrizzle. Mostly cloudy.14 mph81%29.92 "HgN/A
12:30 PM43 °FMostly cloudy.15 mph87%29.92 "HgN/A
12:00 PM43 °FDrizzle. Partly sunny.15 mph87%29.89 "HgN/A
11:30 AM43 °FLight rain. Mostly cloudy.16 mph87%29.89 "HgN/A
11:00 AM43 °FLight rain. Partly sunny.16 mph87%29.86 "HgN/A
10:30 AM41 °FLight rain. More clouds than sun.3 mph93%29.86 "Hg4 mi
10:00 AM41 °FLight rain. Fog.5 mph93%29.83 "Hg3 mi
9:30 AM39 °FLight rain. Fog.3 mph100%29.83 "Hg3 mi
9:00 AM39 °FLight rain. Fog.3 mph93%29.80 "Hg3 mi
8:30 AM39 °FLight rain. Mostly cloudy.2 mph93%29.80 "Hg4 mi
8:00 AM39 °FLight rain. Mostly cloudy.3 mph93%29.80 "Hg4 mi
7:30 AM39 °FLight rain. Mostly cloudy.5 mph93%29.77 "HgN/A
7:00 AM39 °FLight rain. Mostly cloudy.3 mph93%29.77 "HgN/A
6:30 AM39 °FLight rain. Overcast.5 mph93%29.77 "HgN/A
6:00 AM39 °FLight rain. Overcast.6 mph93%29.77 "HgN/A
5:30 AM39 °FLight rain. Mostly cloudy.8 mph93%29.77 "HgN/A
4:30 AM39 °FLight rain. Mostly cloudy.10 mph93%29.77 "Hg5 mi
3:30 AM41 °FLight rain. Mostly cloudy.13 mph87%29.80 "HgN/A
3:00 AM41 °FLight rain. Overcast.12 mph87%29.83 "HgN/A
Weather by CustomWeather, © 2015

See weather overviewHow to use our weather pages